Find Starlink 5088

NORAD ID: 54000 Int'l Des: 2022-125 Owner: SPXS Country: US Constellation: starlink operational
LEOCIRCULAR

Current View

Loading 3D Globe...

About Starlink 5088

Description loading...

Upcoming Passes

Passes for default location (London). Set your location on the main map for personalized predictions.

Altitude History

Loading altitude history...

Two-Line Element Set

1 54000U 22125AN 26151.51250389 .00008046 00000-0 52360-3 0 9996
2 54000 53.1947 192.4882 0001432 78.6677 281.4475 15.08801505202104
Epoch: May 31, 2026 • Age: 5 hours

Current Status

Altitude 539.6 km
Velocity 7.60 km/s
Sub-Earth Point 17.05°N, 58.1°E
Launch Date Oct 5, 2022
Age 3.6 years
Type internet

Technical Details

Classification Payload
Mass 305.00 kg
Dry Mass 290.00 kg
Total Mass 305.00 kg
Length 0.20 m
Diameter 2.80 m
Span 9.00 m
Shape Box + pan
Manufacturer SPXS
Bus Type Starlink
Phase Status In Orbit
Owner/State SPXS/US

Most Searched